OPS 4682 DEB, 38428

Orbit data source: Space-Track

OPS 4682 DEB, 38428 is space debris in LEO originally from a launch on Sat, 03 Apr 1965 UTC launched from the Air Force Western Test Range (AFWTR). Debris objects in space refer to the collection of defunct objects orbiting the Earth. Examples of debris include non-operational satellites, rocket bodies, and fragments generated from explosions, collisions, or faulty payload assembly.

Loading next visibility...
Identifier
38428, 1965-027EH
Orbit
LEO
Country
Flag of USUS
Related business
Manufacturer
Unknown
Mission
Spacecraft
Bus & Motor
Unknown
Mass
Unknown
Launch date (UTC)
1965-04-03 (61 years ago)
Launch vehicle
Unknown
Launch site
Air Force Western Test Range (AFWTR)
Object type
Payload
Rocket body
Debris
Shape & HBR
Unknown shape, 0.1 m
Radar Cross Section
Medium (>0.1 m² and <1 m²)

Expand to show TLE details & history
Last TLE update: 21 hours ago

TLE from 21 hours ago
0 OPS 4682 DEB
1 38428U 65027EH  26263.28133941 -.00000124  00000-0 -45053-3 0  9994
2 38428  90.2580  15.5492 0045579 165.6992 194.5431 12.97525714610248
Epoch: 2026-09-20T06:45Z
TLE epoch observation values (Epoch: 2026-09-20T06:45:07.725Z)
Latitude
0.00004°
Longitude
-84.91076°
Altitude
1,308.443 km
Speed
7.187 km/s
True Right ascension
01h 02m 11s
True Declination
0° 00' 00"
Sunlit
Object was in full shadow at epoch
Visualization orbit readout
Latitude
Unknown
Longitude
Unknown
Altitude
Unknown
Speed
Unknown
Apparent Right ascension
Unknown
Apparent Declination
Unknown
Sunlit
N/A
Visualization observer readout
Local Sidereal Time
20:50:15
Azimuth
Unknown
Elevation
Unknown
Doppler factor
Unknown
Orbital elements
Apogee altitude
1,303.782 km
Perigee altitude
1,234.072 km
Semi-major axis
7,647.064 km
Eccentricity
0.00456
Inclination
90.258°
RAAN
15.5492°
Arg. of periapsis
165.6992°
True anomaly
194.41267°
Mean anomaly
194.5431°
Eccentric anomaly
194.47781°
Mean motion
3.24565 °/min
Orbital period
110.92 mins
BSTAR
-0.00045053
Loading maneuver chart data...
Computing Atmospheric mass density...
Loading historical data...
Loading historical data...
Loading historical data...
Loading historical data...
Loading historical data...
Loading historical data...
Loading historical data...

Documentation

Showing up to 5 results
|